Location: Unspecified
(0.0000°N, 0.0000°E)
Time: 08:51:43
(UTC+00:00)

Tiros 1 - Visible Passes

Search period start: 25 June 2016 00:00
Search period end: 05 July 2016 00:00
Orbit: 631 x 665 km, 48.4° (Epoch: 24 June)

Date Brightness Start Highest point End Pass type
(mag) Time Alt. Az. Time Alt. Az. Time Alt. Az.
25 Jun 10.3 02:59:42 11° ENE 02:59:42 11° ENE 02:59:53 10° ENE visible
25 Jun 9.0 04:37:24 17° NW 04:37:31 17° NW 04:40:34 10° N visible
26 Jun 9.6 03:25:14 17° NNE 03:25:14 17° NNE 03:26:25 10° NNE visible
27 Jun 9.7 03:50:43 12° NNW 03:50:43 12° NNW 03:51:20 10° N visible
